Regional Weather Roundup
Issued by NWS

Home | Current Version | Previous Version | Graphics & Text | Print | Product List | Glossary On
Versions: 1 2 3 4 5 6 7 8 9 10 11 12 13 14 15 16 17 18 19 20 21 22 23 24 25 26 27 28 29 30 31 32 33 34 35 36 37 38 39 40 41 42 43 44 45 46 47 48 49 50
000
ASUS43 KBIS 291820
RWRND

NORTH DAKOTA REGIONAL WEATHER ROUNDUP
NATIONAL WEATHER SERVICE BISMARCK ND
1200 PM CST THU JAN 29 2015

NOTE: "FAIR" INDICATES FEW OR NO CLOUDS BELOW 12,000 FEET WITH NO
SIGNIFICANT WEATHER AND/OR OBSTRUCTIONS TO VISIBILITY.


NDZ001>003-009>011-017-291900-
NORTHWEST NORTH DAKOTA

CITY           SKY/WX    TMP DP  RH WIND       PRES   REMARKS
WILLISTON      CLOUDY    24  17  74 CALM      30.50S
6HR MIN TEMP:  20; 6HR MAX TEMP:  25;

MINOT          LGT SNOW  18  11  74 W21       30.50R WCI   1
MINOT AFB      FLURRIES  17  15  94 N7        30.50R WCI   7
$$

NDZ018>021-031>035-040>046-291900-
SOUTHWEST NORTH DAKOTA

CITY           SKY/WX    TMP DP  RH WIND       PRES   REMARKS
BISMARCK       CLOUDY    29  20  69 N8        30.50R
6HR MIN TEMP:  27; 6HR MAX TEMP:  29;

DICKINSON      SUNNY     32  21  64 NW14      30.43S
GARRISON         N/A     24  19  81 N7        30.47S WCI  16
6HR MIN TEMP:  24; 6HR MAX TEMP:  26;

HETTINGER ARPT SUNNY     33  22  63 W10       30.46F
$$

NDZ004>008-012>016-024-026-027-054-291900-
NORTHEAST NORTH DAKOTA

CITY           SKY/WX    TMP DP  RH WIND       PRES   REMARKS
GRAND FORKS    LGT SNOW  14   7  73 N18       30.52R WCI  -3
GRND FRKS AFB  FLURRIES  14   3  62 N16G25    30.52R WCI  -2
DEVILS LAKE    CLOUDY    14   7  73 N12       30.49R WCI   0
$$

NDZ022-023-025-028>030-036>039-047>053-291900-
SOUTHEAST NORTH DAKOTA

CITY           SKY/WX    TMP DP  RH WIND       PRES   REMARKS
FARGO          CLOUDY    17   7  64 N22       30.50R WCI   0
6HR MIN TEMP:  17; 6HR MAX TEMP:  22; 6HR PCP: TRACE;

JAMESTOWN      LGT SNOW  19  12  74 NW16G23   30.48R WCI   4
$$




USA.gov is the U.S. government's official web portal to all federal, state and local government web resources and services.